Tracking 28052 objects as of 21-Sep-2023
HD Live streaming from Space Station
objects crossing your sky now

ACTS

Track ACTS now!
ACTS is classified as:


NORAD ID: 22796
Int'l Code: 1993-058B
Perigee: 35,598.8 km
Apogee: 35,988.5 km
Inclination: 14.6 °
Period: 1,436.1 minutes
Semi major axis: 42164 km
RCS: 21.8582 m2 (large)
Launch date: September 12, 1993
Source: United States (US)
Launch site: AIR FORCE EASTERN TEST RANGE (AFETR)
Your satellite tracking list
Your tracking list is empty




NASA's NSSDC Master Catalog

Two Line Element Set (TLE):
1 22796U 93058B   23263.34803403 -.00000100  00000-0  00000-0 0  9994
2 22796  14.6041   3.1876 0046212  62.0931 313.0977  1.00271962116876
Source of the keplerian elements: AFSPC